St. Johns, AZ

10:02 AM MST on September 20, 2017 (GMT -0700)
Saint Johns Industrial

Weather History for KSJN - February, 2012

Change the Weather History Date:

Thursday, February 2, 2012

  Actual Average (KLSB) Record (KLSB)
Temperature  
Mean Temperature 36 °F -  
Max Temperature 46 °F 60 °F 68 °F (2013)
Min Temperature 27 °F 23 °F 24 °F (2016)
Degree Days  
Heating Degree Days 28    
Moisture  
Dew Point 25 °F    
Average Humidity 68    
Maximum Humidity 96    
Minimum Humidity 25    
Precipitation  
Precipitation 0.00 in - - ()
Sea Level Pressure  
Sea Level Pressure 29.89 in    
Wind  
Wind Speed 6 mph (WSW)    
Max Wind Speed 24 mph    
Max Gust Speed 30 mph    
Visibility 9 miles    
Events Snow    
Averages and records for this station are not official NWS values.
T = Trace of Precipitation, MM = Missing Value Source: NWS Daily Summary

Daily Weather History Graph

Daily Weather History Graph

Search for Another Location

Airport or City:

Trip Planner

Search our weather history database for the weather conditions in past years. The results will help you decide how hot, cold, wet, or windy it might be!

Date:

Astronomy

Feb. 02, 2012 Rise Set
Actual Time 7:15 AM MST 5:47 PM MST
Civil Twilight 6:48 AM MST 6:14 PM MST
Nautical Twilight 6:18 AM MST 6:44 PM MST
Astronomical Twilight 5:48 AM MST 7:13 PM MST
Moon 1:06 PM MST (2/2) 2:55 AM MST (2/2)
Length of Visible Light 11h 25m
Length of Day
10h 32m
Waxing Gibbous, 74% of the Moon is Illuminated
Feb 2
Waxing Gibbous
Feb 7
Full
Feb 14
Last Quarter
Feb 21
New
Feb 29
First Quarter

Hourly Weather History & Observations

Time (MST) Temp. Windchill Dew Point Humidity Pressure Visibility Wind Dir Wind Speed Gust Speed Precip Events Conditions
12:54 AM 30.9 °F - 10.9 °F 43% 29.92 in 10.0 mi Calm Calm - N/A   Clear
1:54 AM 32.0 °F 24.8 °F 14.0 °F 48% 29.89 in 10.0 mi SSW 8.1 mph - N/A   Clear
2:54 AM 28.0 °F - 12.0 °F 51% 29.89 in 10.0 mi Calm Calm - N/A   Clear
3:54 AM 27.0 °F 21.6 °F 12.9 °F 56% 29.88 in 10.0 mi SSW 4.6 mph - N/A   Mostly Cloudy
4:54 AM 35.1 °F - 16.0 °F 46% 29.86 in 10.0 mi Calm Calm - N/A   Overcast
5:54 AM 33.1 °F 28.7 °F 16.0 °F 50% 29.86 in 10.0 mi SSW 4.6 mph - N/A   Overcast
6:54 AM 35.6 °F 29.9 °F 17.6 °F 48% 29.94 in 10.0 mi SSW 6.9 mph - N/A   Overcast
7:54 AM 37.9 °F 29.6 °F 21.9 °F 53% 29.87 in 6.0 mi WSW 13.8 mph 24.2 mph 0.00 in Snow Light Snow
8:03 AM 35.6 °F 28.6 °F 24.8 °F 65% 29.94 in 2.5 mi WSW 9.2 mph 21.9 mph 0.00 in Snow Light Snow
8:11 AM 35.6 °F 30.7 °F 26.6 °F 70% 29.93 in 9.0 mi SW 5.8 mph - 0.00 in   Mostly Cloudy
8:54 AM 39.9 °F 36.7 °F 24.1 °F 53% 29.86 in 10.0 mi SSW 4.6 mph - 0.00 in   Partly Cloudy
9:54 AM 43.0 °F 37.7 °F 21.0 °F 42% 29.83 in 10.0 mi South 9.2 mph - N/A   Clear
10:54 AM 46.9 °F - 19.0 °F 33% 29.82 in 10.0 mi South 10.4 mph 17.3 mph N/A   Mostly Cloudy
11:54 AM 46.9 °F - 12.9 °F 25% 29.81 in 10.0 mi West 23.0 mph 28.8 mph N/A   Mostly Cloudy
12:18 PM 42.8 °F 33.3 °F 24.8 °F 49% 29.88 in 10.0 mi NW 24.2 mph 29.9 mph N/A   Overcast
12:54 PM 39.0 °F 32.3 °F 26.1 °F 60% 29.84 in 10.0 mi North 10.4 mph - N/A   Overcast
1:54 PM 39.0 °F 30.6 °F 28.0 °F 65% 29.82 in 10.0 mi NW 15.0 mph - 0.00 in   Overcast
2:54 PM 37.9 °F 34.4 °F 26.1 °F 62% 29.84 in 3.0 mi SSE 4.6 mph 18.4 mph 0.00 in Snow Light Snow
3:46 PM 37.4 °F 31.4 °F 30.2 °F 75% 29.87 in 9.0 mi WNW 8.1 mph - 0.00 in Snow Light Snow
3:54 PM 37.9 °F 33.5 °F 30.0 °F 73% 29.85 in 10.0 mi WNW 5.8 mph - 0.00 in   Overcast
4:54 PM 39.0 °F 32.8 °F 27.0 °F 62% 29.83 in 10.0 mi WSW 9.2 mph - N/A   Scattered Clouds
5:54 PM 35.1 °F 27.9 °F 28.0 °F 76% 29.86 in 10.0 mi WSW 9.2 mph - N/A   Mostly Cloudy
6:54 PM 36.0 °F 29.0 °F 27.0 °F 70% 29.87 in 10.0 mi West 9.2 mph - N/A   Overcast
7:42 PM 33.8 °F 27.7 °F 30.2 °F 87% 29.92 in 4.0 mi West 6.9 mph - 0.00 in Snow Light Snow
7:54 PM 33.1 °F 27.7 °F 30.9 °F 92% 29.89 in 9.0 mi West 5.8 mph - 0.00 in   Overcast
8:18 PM 33.8 °F 27.7 °F 30.2 °F 87% 29.93 in 4.0 mi West 6.9 mph - 0.00 in Snow Light Snow
8:36 PM 33.8 °F 29.6 °F 32.0 °F 93% 29.93 in 8.0 mi West 4.6 mph - 0.00 in Snow Light Snow
8:54 PM 32.0 °F 28.7 °F 30.9 °F 96% 29.90 in 9.0 mi WSW 3.5 mph - 0.00 in   Overcast
9:20 PM 32.0 °F 27.5 °F 30.2 °F 93% 29.94 in 10.0 mi WSW 4.6 mph - N/A   Overcast
9:28 PM 32.0 °F 25.6 °F 30.2 °F 93% 29.94 in 10.0 mi WSW 6.9 mph - N/A   Overcast
9:54 PM 33.1 °F 26.9 °F 30.9 °F 92% 29.90 in 10.0 mi West 6.9 mph - N/A   Overcast
10:54 PM 32.0 °F 27.5 °F 30.0 °F 92% 29.88 in 10.0 mi WSW 4.6 mph - N/A   Overcast
11:45 PM 33.8 °F - 30.2 °F 87% 29.95 in 10.0 mi Calm Calm - N/A   Overcast
11:54 PM 33.1 °F - 30.9 °F 92% 29.89 in 10.0 mi Calm Calm - N/A   Overcast